Weather in Chastoozerje

Russia / Kurgan Oblast     55°33′58″N   67°54′42″E
temp.,
°C
wind,
m/s
gust,
m/s
humid.,
%
clouds,
%
prec.,
mm/h
press.,
hPa
HPBL,
m
17 april, sat
sat1723:00+3ne510640 0.0 1026301
02:000ne37760 0.0 1027160
05:000e23781 0.0 102853
08:00+2se22685 0.0 1028338
11:00+5sw22515 0.0 10271063
14:00+8wsw34415 0.0 10251533
17:00+9w56415 0.0 10221671
20:00+6sw35579 0.0 102078
18 april, sun
sun1823:00+5wsw47675 0.0 1019110
02:00+3wsw511745 0.0 1016201
05:00+3w613829 0.0 1014294
08:00+5wnw713705 0.0 1013826
11:00+2nnw10137989 0.3 1016884
14:00+3n10124275 0.0 10201868
17:00+1n91139100 0.0 10242207
20:00−2n710435 0.0 10271392
19 april, mon
mon1923:00−3nne611450 0.0 10301590
02:00−5nne68432 0.0 10321077
05:00−7n68440 0.0 10341097
08:00−6nne673921 0.0 10351305
11:00−3nne563494 0.0 10351711
14:00−1nne5630100 0.0 10352032
17:00−1nne4630100 0.0 10352098
20:00−3nne224414 0.0 103618
20 april, tue
tue2023:00−4n11470 0.0 103612
02:00−4wnw22455 0.0 103623
05:00−4w35465 0.0 1036141
08:00−1w58345 0.0 1035723
11:00+3wnw683016 0.0 10331343
14:00+6w810315 0.0 10311580
17:00+7wnw811355 0.0 10291650
20:00+4w6124863 0.0 1028289
21 april, wed
wed2123:00+2w6136019 0.0 1027268
02:00+2wnw61367100 0.0 1026263
05:00+1wnw512735 0.0 1027253
08:00+4nnw611715 0.0 1028580
11:00+8n795323 0.0 10281433
14:00+10n78405 0.0 10291729
17:00+9nne78385 0.0 10311643
20:00+5ne48481 0.0 1034246